{"data":{"norad_id":62517,"epoch":"2026-09-21T15:46:10.811712Z","epoch_age_seconds":74528,"freshness":"FRESH","line1":"1 62517U 25004G   26264.65706958  .00155632  00000+0  11922-2 0  9996","line2":"2 62517  43.0003 329.0981 0001717 285.1598  74.9079 15.70872584 98032","mean_motion":15.70872584,"eccentricity":0.0001717,"inclination_deg":43.0003,"raan_deg":329.0981,"arg_perigee_deg":285.1598,"mean_anomaly_deg":74.9079,"bstar":0.0011922,"rev_number":9803,"period_min":91.668796990094,"perigee_km":355.24561167356,"apogee_km":357.55825234281,"semimajor_km":6734.5389320082,"source":"CELESTRAK","updated_at":"2026-09-22T09:00:49.622610Z"}}